Location: Unspecified
(17.6330°N, 0.0000°E)
Time: 11:48:20
(UTC+00:00)

S-56A Canister/Altair - Pass Details

Date: 03 July 2019
Orbit: 632 x 2500 km, 38.9° (Epoch: 19 July)

Event Time Altitude Azimuth Distance (km) Brightness Sun altitude
Rises 17:53:51 0° 312° (NW) 4,723 13.1 9.1°
Reaches altitude 10° 17:57:44 10° 319° (NW) 3,413 12.2 8.2°
Maximum altitude 18:05:10 39° 26° (NNE) 1,463 9.0 6.6°
Drops below altitude 10° 18:10:23 10° 95° (E) 2,384 9.5 5.4°
Sets 18:12:38 0° 103° (ESE) 3,167 10.0 4.9°
